contact:dominique.lefevre@mio.osupytheas.fr, maurice.libes@osupytheas.fr, didier.mallarino@osupytheas.fr
Project:EMSO http://www.emso-fr.org/EMSO-France
Depth: 2436.0 m
Title:EMSO Ligure Ouest : Data MII capteur MICROCAT
DateTime_Computer,Latitude,Longitude,Temperature,Conductivity,Pressure,DateTime_Instrument
DateTime_Computer,Latitude,Longitude,degC,S m-1,dbar,DateTime_Instrument
2020-01-15T00:02:17Z,42.805,6.029,13.3002,4.60006,2469.984,2020-1-15T02:02:49Z
2020-01-15T00:05:20Z,42.805,6.029,13.2997,4.59985,2469.993,2020-1-15T02:05:53Z
2020-01-15T00:08:23Z,42.805,6.029,13.2988,4.60007,2469.984,2020-1-15T02:08:56Z
2020-01-15T00:11:27Z,42.805,6.029,13.3006,4.59995,2469.97,2020-1-15T02:11:59Z
2020-01-15T00:14:30Z,42.805,6.029,13.3000,4.60006,2469.947,2020-1-15T02:15:02Z
2020-01-15T00:17:33Z,42.805,6.029,13.2998,4.60001,2469.947,2020-1-15T02:18:06Z
2020-01-15T00:20:36Z,42.805,6.029,13.2986,4.60010,2469.947,2020-1-15T02:21:09Z
2020-01-15T00:23:39Z,42.805,6.029,13.3007,4.60016,2469.97,2020-1-15T02:24:12Z
2020-01-15T00:26:43Z,42.805,6.029,13.2993,4.60000,2470.007,2020-1-15T02:27:15Z
2020-01-15T00:29:46Z,42.805,6.029,13.2999,4.60035,2469.937,2020-1-15T02:30:18Z
2020-01-15T00:32:49Z,42.805,6.029,13.3032,4.59997,2469.937,2020-1-15T02:33:22Z
2020-01-15T00:35:52Z,42.805,6.029,13.3003,4.59984,2469.937,2020-1-15T02:36:25Z
2020-01-15T00:38:56Z,42.805,6.029,13.3046,4.60011,2469.933,2020-1-15T02:39:28Z
2020-01-15T00:41:59Z,42.805,6.029,13.2998,4.60005,2469.97,2020-1-15T02:42:31Z
2020-01-15T00:45:02Z,42.805,6.029,13.3005,4.60016,2469.947,2020-1-15T02:45:35Z
2020-01-15T00:48:05Z,42.805,6.029,13.3011,4.59998,2469.96,2020-1-15T02:48:38Z
2020-01-15T00:51:09Z,42.805,6.029,13.3007,4.60014,2469.96,2020-1-15T02:51:41Z
2020-01-15T00:54:12Z,42.805,6.029,13.2993,4.59999,2469.947,2020-1-15T02:54:45Z
2020-01-15T00:57:15Z,42.805,6.029,13.2991,4.59999,2469.984,2020-1-15T02:57:48Z
2020-01-15T01:00:19Z,42.805,6.029,13.2998,4.59994,2469.947,2020-1-15T03:00:51Z
2020-01-15T01:03:22Z,42.805,6.029,13.3001,4.60016,2469.947,2020-1-15T03:03:54Z
2020-01-15T01:06:25Z,42.805,6.029,13.3011,4.60003,2469.9,2020-1-15T03:06:58Z
2020-01-15T01:09:28Z,42.805,6.029,13.3020,4.60022,2469.96,2020-1-15T03:10:01Z
2020-01-15T01:12:32Z,42.805,6.029,13.3039,4.59991,2469.923,2020-1-15T03:13:04Z
2020-01-15T01:15:35Z,42.805,6.029,13.3021,4.59991,2469.923,2020-1-15T03:16:07Z
2020-01-15T01:18:38Z,42.805,6.029,13.3029,4.60016,2469.923,2020-1-15T03:19:11Z
2020-01-15T01:21:41Z,42.805,6.029,13.3023,4.60014,2469.947,2020-1-15T03:22:14Z
2020-01-15T01:24:45Z,42.805,6.029,13.3005,4.59996,2469.947,2020-1-15T03:25:17Z
2020-01-15T01:27:48Z,42.805,6.029,13.3010,4.60024,2469.937,2020-1-15T03:28:20Z
2020-01-15T01:30:51Z,42.805,6.029,13.2996,4.59992,2469.937,2020-1-15T03:31:24Z
2020-01-15T01:33:54Z,42.805,6.029,13.3012,4.59994,2469.937,2020-1-15T03:34:27Z
2020-01-15T01:36:58Z,42.805,6.029,13.3001,4.60019,2469.937,2020-1-15T03:37:30Z
2020-01-15T01:40:01Z,42.805,6.029,13.3024,4.60004,2469.923,2020-1-15T03:40:33Z
2020-01-15T01:43:04Z,42.805,6.029,13.2996,4.60009,2469.923,2020-1-15T03:43:37Z
2020-01-15T01:46:07Z,42.805,6.029,13.3019,4.60014,2469.923,2020-1-15T03:46:40Z
2020-01-15T01:49:11Z,42.805,6.029,13.3009,4.60003,2469.914,2020-1-15T03:49:43Z
2020-01-15T01:52:14Z,42.805,6.029,13.2999,4.59999,2469.937,2020-1-15T03:52:46Z
2020-01-15T01:55:17Z,42.805,6.029,13.3009,4.59999,2469.914,2020-1-15T03:55:50Z
2020-01-15T01:58:21Z,42.805,6.029,13.3032,4.60009,2469.9,2020-1-15T03:58:53Z
2020-01-15T02:01:24Z,42.805,6.029,13.3026,4.60009,2469.937,2020-1-15T04:01:56Z
2020-01-15T02:04:27Z,42.805,6.029,13.3038,4.59999,2469.914,2020-1-15T04:04:59Z
2020-01-15T02:07:30Z,42.805,6.029,13.3019,4.59998,2469.914,2020-1-15T04:08:03Z
2020-01-15T02:10:33Z,42.805,6.029,13.3053,4.59998,2469.937,2020-1-15T04:11:06Z
2020-01-15T02:13:37Z,42.805,6.029,13.3002,4.60008,2469.937,2020-1-15T04:14:09Z
2020-01-15T02:16:40Z,42.805,6.029,13.3029,4.60014,2469.89,2020-1-15T04:17:12Z
2020-01-15T02:19:43Z,42.805,6.029,13.3048,4.60009,2469.9,2020-1-15T04:20:16Z
2020-01-15T02:22:46Z,42.805,6.029,13.3026,4.60007,2469.876,2020-1-15T04:23:19Z
2020-01-15T02:25:50Z,42.805,6.029,13.3020,4.59993,2469.914,2020-1-15T04:26:22Z
2020-01-15T02:28:53Z,42.805,6.029,13.3004,4.59997,2469.914,2020-1-15T04:29:25Z
2020-01-15T02:31:56Z,42.805,6.029,13.3004,4.60009,2469.867,2020-1-15T04:32:28Z
2020-01-15T02:34:59Z,42.805,6.029,13.3019,4.60004,2469.9,2020-1-15T04:35:32Z
2020-01-15T02:38:02Z,42.805,6.029,13.2988,4.60005,2469.89,2020-1-15T04:38:35Z
2020-01-15T02:41:06Z,42.805,6.029,13.3009,4.60014,2469.89,2020-1-15T04:41:38Z
2020-01-15T02:44:09Z,42.805,6.029,13.3011,4.60013,2469.89,2020-1-15T04:44:41Z
2020-01-15T02:47:12Z,42.805,6.029,13.3024,4.60008,2469.89,2020-1-15T04:47:45Z
2020-01-15T02:50:15Z,42.805,6.029,13.3017,4.59996,2469.867,2020-1-15T04:50:48Z
2020-01-15T02:53:19Z,42.805,6.029,13.3033,4.60013,2469.853,2020-1-15T04:53:51Z
2020-01-15T02:56:22Z,42.805,6.029,13.3021,4.60002,2469.89,2020-1-15T04:56:54Z
2020-01-15T02:59:25Z,42.805,6.029,13.3039,4.60013,2469.853,2020-1-15T04:59:58Z
2020-01-15T03:02:28Z,42.805,6.029,13.3004,4.60000,2469.89,2020-1-15T05:03:01Z
2020-01-15T03:05:32Z,42.805,6.029,13.3024,4.60011,2469.867,2020-1-15T05:06:05Z
2020-01-15T03:08:35Z,42.805,6.029,13.3005,4.60003,2469.853,2020-1-15T05:09:08Z
2020-01-15T03:11:39Z,42.805,6.029,13.3024,4.59995,2469.876,2020-1-15T05:12:11Z
2020-01-15T03:14:42Z,42.805,6.029,13.3024,4.60000,2469.853,2020-1-15T05:15:14Z
2020-01-15T03:17:45Z,42.805,6.029,13.3023,4.60001,2469.876,2020-1-15T05:18:18Z
2020-01-15T03:20:48Z,42.805,6.029,13.3049,4.60009,2469.867,2020-1-15T05:21:21Z
2020-01-15T03:23:52Z,42.805,6.029,13.3055,4.60006,2469.853,2020-1-15T05:24:24Z
2020-01-15T03:26:55Z,42.805,6.029,13.3023,4.59998,2469.853,2020-1-15T05:27:27Z
2020-01-15T03:29:58Z,42.805,6.029,13.3002,4.60009,2469.876,2020-1-15T05:30:31Z
2020-01-15T03:33:01Z,42.805,6.029,13.3024,4.60001,2469.83,2020-1-15T05:33:34Z
2020-01-15T03:36:05Z,42.805,6.029,13.3006,4.60003,2469.876,2020-1-15T05:36:37Z
2020-01-15T03:39:08Z,42.805,6.029,13.3018,4.60005,2469.83,2020-1-15T05:39:40Z
2020-01-15T03:42:11Z,42.805,6.029,13.3013,4.59987,2469.858,2020-1-15T05:42:44Z
2020-01-15T03:45:14Z,42.805,6.029,13.3015,4.60024,2469.876,2020-1-15T05:45:47Z
2020-01-15T03:48:18Z,42.805,6.029,13.3021,4.60003,2469.867,2020-1-15T05:48:50Z
2020-01-15T03:51:21Z,42.805,6.029,13.3027,4.60002,2469.853,2020-1-15T05:51:54Z
2020-01-15T03:54:24Z,42.805,6.029,13.3048,4.60003,2469.844,2020-1-15T05:54:57Z
2020-01-15T03:57:28Z,42.805,6.029,13.3026,4.60016,2469.83,2020-1-15T05:58:00Z
2020-01-15T04:00:31Z,42.805,6.029,13.3029,4.60010,2469.867,2020-1-15T06:01:03Z
2020-01-15T04:03:34Z,42.805,6.029,13.3023,4.59998,2469.89,2020-1-15T06:04:06Z
2020-01-15T04:06:37Z,42.805,6.029,13.3010,4.59994,2469.844,2020-1-15T06:07:10Z
2020-01-15T04:09:40Z,42.805,6.029,13.3029,4.60011,2469.867,2020-1-15T06:10:13Z
2020-01-15T04:12:44Z,42.805,6.029,13.3022,4.59992,2469.867,2020-1-15T06:13:16Z
2020-01-15T04:15:47Z,42.805,6.029,13.3045,4.60000,2469.89,2020-1-15T06:16:19Z
2020-01-15T04:18:50Z,42.805,6.029,13.3046,4.59996,2469.867,2020-1-15T06:19:23Z
2020-01-15T04:21:53Z,42.805,6.029,13.3051,4.60003,2469.876,2020-1-15T06:22:26Z
2020-01-15T04:24:56Z,42.805,6.029,13.3046,4.60009,2469.867,2020-1-15T06:25:29Z
2020-01-15T04:28:00Z,42.805,6.029,13.3048,4.60016,2469.853,2020-1-15T06:28:32Z
2020-01-15T04:31:03Z,42.805,6.029,13.3029,4.60031,2469.844,2020-1-15T06:31:36Z
2020-01-15T04:34:06Z,42.805,6.029,13.3041,4.60025,2469.844,2020-1-15T06:34:39Z
2020-01-15T04:37:10Z,42.805,6.029,13.3048,4.60016,2469.867,2020-1-15T06:37:42Z
2020-01-15T04:40:13Z,42.805,6.029,13.3048,4.60008,2469.89,2020-1-15T06:40:45Z
2020-01-15T04:43:16Z,42.805,6.029,13.3060,4.60006,2469.867,2020-1-15T06:43:49Z
2020-01-15T04:46:19Z,42.805,6.029,13.3058,4.60011,2469.876,2020-1-15T06:46:52Z
2020-01-15T04:49:23Z,42.805,6.029,13.3055,4.60017,2469.821,2020-1-15T06:49:55Z
2020-01-15T04:52:26Z,42.805,6.029,13.3024,4.60011,2469.844,2020-1-15T06:52:58Z
2020-01-15T04:55:29Z,42.805,6.029,13.3043,4.60003,2469.83,2020-1-15T06:56:02Z
2020-01-15T04:58:32Z,42.805,6.029,13.3065,4.60011,2469.844,2020-1-15T06:59:05Z
2020-01-15T05:01:36Z,42.805,6.029,13.3041,4.60014,2469.89,2020-1-15T07:02:08Z
2020-01-15T05:04:39Z,42.805,6.029,13.3048,4.60007,2469.867,2020-1-15T07:05:11Z
2020-01-15T05:07:42Z,42.805,6.029,13.3050,4.60001,2469.853,2020-1-15T07:08:15Z
2020-01-15T05:10:45Z,42.805,6.029,13.3062,4.60003,2469.83,2020-1-15T07:11:18Z
2020-01-15T05:13:48Z,42.805,6.029,13.3045,4.59997,2469.844,2020-1-15T07:14:21Z
2020-01-15T05:16:52Z,42.805,6.029,13.3036,4.60001,2469.83,2020-1-15T07:17:24Z
2020-01-15T05:19:55Z,42.805,6.029,13.3041,4.59996,2469.89,2020-1-15T07:20:27Z
2020-01-15T05:22:58Z,42.805,6.029,13.3018,4.60002,2469.876,2020-1-15T07:23:31Z
2020-01-15T05:26:02Z,42.805,6.029,13.3053,4.59998,2469.83,2020-1-15T07:26:34Z
2020-01-15T05:29:05Z,42.805,6.029,13.3064,4.59988,2469.867,2020-1-15T07:29:37Z
2020-01-15T05:32:08Z,42.805,6.029,13.3021,4.60027,2469.867,2020-1-15T07:32:40Z
2020-01-15T05:35:11Z,42.805,6.029,13.3019,4.59999,2469.853,2020-1-15T07:35:44Z
2020-01-15T05:38:14Z,42.805,6.029,13.3034,4.59997,2469.876,2020-1-15T07:38:47Z
2020-01-15T05:41:18Z,42.805,6.029,13.3041,4.59999,2469.853,2020-1-15T07:41:50Z
2020-01-15T05:44:21Z,42.805,6.029,13.3026,4.60002,2469.853,2020-1-15T07:44:53Z
2020-01-15T05:47:24Z,42.805,6.029,13.3039,4.59987,2469.9,2020-1-15T07:47:57Z
2020-01-15T05:50:27Z,42.805,6.029,13.3025,4.60003,2469.867,2020-1-15T07:51:00Z
2020-01-15T05:53:31Z,42.805,6.029,13.3043,4.59992,2469.876,2020-1-15T07:54:03Z
2020-01-15T05:56:34Z,42.805,6.029,13.3069,4.60003,2469.867,2020-1-15T07:57:06Z
2020-01-15T05:59:37Z,42.805,6.029,13.3029,4.59992,2469.863,2020-1-15T08:00:10Z
2020-01-15T06:02:40Z,42.805,6.029,13.3019,4.60006,2469.9,2020-1-15T08:03:13Z
2020-01-15T06:05:44Z,42.805,6.029,13.3024,4.60016,2469.89,2020-1-15T08:06:16Z
2020-01-15T06:08:47Z,42.805,6.029,13.3022,4.60011,2469.853,2020-1-15T08:09:19Z
2020-01-15T06:11:50Z,42.805,6.029,13.3029,4.59996,2469.876,2020-1-15T08:12:22Z
2020-01-15T06:14:53Z,42.805,6.029,13.3006,4.59991,2469.9,2020-1-15T08:15:26Z
2020-01-15T06:17:56Z,42.805,6.029,13.3012,4.60017,2469.9,2020-1-15T08:18:29Z
2020-01-15T06:21:00Z,42.805,6.029,13.3048,4.60025,2469.923,2020-1-15T08:21:32Z
2020-01-15T06:24:03Z,42.805,6.029,13.3009,4.60007,2469.914,2020-1-15T08:24:35Z
2020-01-15T06:27:06Z,42.805,6.029,13.3004,4.60001,2469.89,2020-1-15T08:27:39Z
2020-01-15T06:30:09Z,42.805,6.029,13.3058,4.60003,2469.937,2020-1-15T08:30:42Z
2020-01-15T06:33:13Z,42.805,6.029,13.3021,4.60021,2469.876,2020-1-15T08:33:45Z
2020-01-15T06:36:16Z,42.805,6.029,13.3040,4.60001,2469.923,2020-1-15T08:36:48Z
2020-01-15T06:39:19Z,42.805,6.029,13.3041,4.60011,2469.914,2020-1-15T08:39:52Z
2020-01-15T06:42:22Z,42.805,6.029,13.3029,4.60050,2469.876,2020-1-15T08:42:55Z
2020-01-15T06:45:26Z,42.805,6.029,13.3048,4.59996,2469.937,2020-1-15T08:45:58Z
2020-01-15T06:48:29Z,42.805,6.029,13.3043,4.60044,2469.927,2020-1-15T08:49:01Z
2020-01-15T06:51:32Z,42.805,6.029,13.3021,4.60001,2469.96,2020-1-15T08:52:05Z
2020-01-15T06:54:35Z,42.805,6.029,13.3009,4.60008,2469.923,2020-1-15T08:55:08Z
2020-01-15T06:57:38Z,42.805,6.029,13.3064,4.60009,2469.937,2020-1-15T08:58:11Z
2020-01-15T07:00:42Z,42.805,6.029,13.3037,4.59999,2469.923,2020-1-15T09:01:14Z
2020-01-15T07:03:45Z,42.805,6.029,13.3046,4.60007,2469.947,2020-1-15T09:04:17Z
2020-01-15T07:06:48Z,42.805,6.029,13.3037,4.60014,2469.947,2020-1-15T09:07:21Z
2020-01-15T07:09:51Z,42.805,6.029,13.3014,4.60010,2469.96,2020-1-15T09:10:24Z
2020-01-15T07:12:55Z,42.805,6.029,13.3029,4.60015,2469.947,2020-1-15T09:13:27Z
2020-01-15T07:15:58Z,42.805,6.029,13.3066,4.60007,2469.984,2020-1-15T09:16:30Z
2020-01-15T07:19:01Z,42.805,6.029,13.3004,4.60021,2470.007,2020-1-15T09:19:34Z
2020-01-15T07:22:04Z,42.805,6.029,13.3028,4.60016,2469.96,2020-1-15T09:22:37Z
2020-01-15T07:25:08Z,42.805,6.029,13.3062,4.60011,2469.984,2020-1-15T09:25:40Z
2020-01-15T07:28:11Z,42.805,6.029,13.3031,4.60003,2469.984,2020-1-15T09:28:44Z
2020-01-15T07:31:14Z,42.805,6.029,13.3025,4.60011,2469.993,2020-1-15T09:31:47Z
2020-01-15T07:34:18Z,42.805,6.029,13.3005,4.60002,2469.947,2020-1-15T09:34:50Z
2020-01-15T07:37:21Z,42.805,6.029,13.3024,4.59997,2469.993,2020-1-15T09:37:53Z
2020-01-15T07:40:24Z,42.805,6.029,13.3052,4.60008,2470.007,2020-1-15T09:40:57Z
2020-01-15T07:43:27Z,42.805,6.029,13.3041,4.60007,2469.993,2020-1-15T09:44:00Z
2020-01-15T07:46:31Z,42.805,6.029,13.3014,4.59996,2469.97,2020-1-15T09:47:03Z
2020-01-15T07:49:34Z,42.805,6.029,13.3044,4.59994,2470.007,2020-1-15T09:50:06Z
2020-01-15T07:52:37Z,42.805,6.029,13.3037,4.59991,2470.017,2020-1-15T09:53:10Z
2020-01-15T07:55:40Z,42.805,6.029,13.3024,4.59999,2470.017,2020-1-15T09:56:13Z
2020-01-15T07:58:44Z,42.805,6.029,13.3033,4.60001,2470.017,2020-1-15T09:59:16Z
2020-01-15T08:01:47Z,42.805,6.029,13.3036,4.60013,2470.017,2020-1-15T10:02:19Z
2020-01-15T08:04:50Z,42.805,6.029,13.3048,4.60010,2470.03,2020-1-15T10:05:22Z
2020-01-15T08:07:53Z,42.805,6.029,13.3036,4.60049,2470.03,2020-1-15T10:08:26Z
2020-01-15T08:10:56Z,42.805,6.029,13.3046,4.60010,2469.993,2020-1-15T10:11:29Z
2020-01-15T08:14:00Z,42.805,6.029,13.3015,4.60007,2470.04,2020-1-15T10:14:32Z
2020-01-15T08:17:03Z,42.805,6.029,13.3019,4.60005,2470.017,2020-1-15T10:17:35Z
2020-01-15T08:20:06Z,42.805,6.029,13.3049,4.60021,2470.053,2020-1-15T10:20:39Z
2020-01-15T08:23:09Z,42.805,6.029,13.3052,4.60033,2470.03,2020-1-15T10:23:42Z
2020-01-15T08:26:13Z,42.805,6.029,13.3044,4.60009,2470.053,2020-1-15T10:26:45Z
2020-01-15T08:29:16Z,42.805,6.029,13.3029,4.59998,2470.053,2020-1-15T10:29:48Z
2020-01-15T08:32:19Z,42.805,6.029,13.3041,4.59999,2470.053,2020-1-15T10:32:51Z
2020-01-15T08:35:22Z,42.805,6.029,13.3040,4.59999,2470.03,2020-1-15T10:35:55Z
2020-01-15T08:38:25Z,42.805,6.029,13.3031,4.59999,2470.1,2020-1-15T10:38:58Z
2020-01-15T08:41:29Z,42.805,6.029,13.3048,4.60014,2470.063,2020-1-15T10:42:01Z
2020-01-15T08:44:32Z,42.805,6.029,13.3039,4.60005,2470.053,2020-1-15T10:45:04Z
2020-01-15T08:47:35Z,42.805,6.029,13.3056,4.60008,2470.04,2020-1-15T10:48:08Z
2020-01-15T08:50:38Z,42.805,6.029,13.3056,4.60000,2470.087,2020-1-15T10:51:11Z
2020-01-15T08:53:42Z,42.805,6.029,13.3051,4.60014,2470.1,2020-1-15T10:54:14Z
2020-01-15T08:56:45Z,42.805,6.029,13.3026,4.60039,2470.1,2020-1-15T10:57:17Z
2020-01-15T08:59:48Z,42.805,6.029,13.3033,4.60019,2470.087,2020-1-15T11:00:21Z
2020-01-15T09:02:51Z,42.805,6.029,13.3050,4.60015,2470.077,2020-1-15T11:03:24Z
2020-01-15T09:05:55Z,42.805,6.029,13.3047,4.59996,2470.063,2020-1-15T11:06:27Z
2020-01-15T09:08:58Z,42.805,6.029,13.3063,4.60017,2470.1,2020-1-15T11:09:30Z
2020-01-15T09:12:01Z,42.805,6.029,13.3054,4.60004,2470.087,2020-1-15T11:12:34Z
2020-01-15T09:15:04Z,42.805,6.029,13.3051,4.60021,2470.124,2020-1-15T11:15:37Z
2020-01-15T09:18:07Z,42.805,6.029,13.3048,4.60008,2470.124,2020-1-15T11:18:40Z
2020-01-15T09:21:11Z,42.805,6.029,13.3043,4.60008,2470.1,2020-1-15T11:21:43Z
2020-01-15T09:24:14Z,42.805,6.029,13.3051,4.60002,2470.1,2020-1-15T11:24:46Z
2020-01-15T09:27:17Z,42.805,6.029,13.3056,4.59999,2470.11,2020-1-15T11:27:50Z
2020-01-15T09:30:20Z,42.805,6.029,13.3052,4.59998,2470.1,2020-1-15T11:30:53Z
2020-01-15T09:33:24Z,42.805,6.029,13.3048,4.60009,2470.124,2020-1-15T11:33:56Z
2020-01-15T09:36:27Z,42.805,6.029,13.3051,4.59992,2470.11,2020-1-15T11:36:59Z
2020-01-15T09:39:30Z,42.805,6.029,13.3039,4.60001,2470.087,2020-1-15T11:40:03Z
2020-01-15T09:42:33Z,42.805,6.029,13.3046,4.60004,2470.124,2020-1-15T11:43:06Z
2020-01-15T09:45:37Z,42.805,6.029,13.3044,4.60010,2470.147,2020-1-15T11:46:09Z
2020-01-15T09:48:40Z,42.805,6.029,13.3040,4.60005,2470.124,2020-1-15T11:49:13Z
2020-01-15T09:51:43Z,42.805,6.029,13.3035,4.60003,2470.11,2020-1-15T11:52:16Z
2020-01-15T09:54:47Z,42.805,6.029,13.3041,4.60018,2470.147,2020-1-15T11:55:19Z
2020-01-15T09:57:50Z,42.805,6.029,13.3054,4.60039,2470.11,2020-1-15T11:58:22Z
2020-01-15T10:00:53Z,42.805,6.029,13.3039,4.60008,2470.11,2020-1-15T12:01:26Z
2020-01-15T10:03:56Z,42.805,6.029,13.3051,4.59993,2470.133,2020-1-15T12:04:29Z
2020-01-15T10:06:59Z,42.805,6.029,13.3062,4.60003,2470.147,2020-1-15T12:07:32Z
2020-01-15T10:10:03Z,42.805,6.029,13.3064,4.59995,2470.138,2020-1-15T12:10:35Z
2020-01-15T10:13:06Z,42.805,6.029,13.3060,4.60006,2470.133,2020-1-15T12:13:38Z
2020-01-15T10:16:09Z,42.805,6.029,13.3063,4.59999,2470.147,2020-1-15T12:16:42Z
2020-01-15T10:19:12Z,42.805,6.029,13.3068,4.59996,2470.147,2020-1-15T12:19:45Z
2020-01-15T10:22:16Z,42.805,6.029,13.3048,4.59999,2470.147,2020-1-15T12:22:48Z
2020-01-15T10:25:19Z,42.805,6.029,13.3056,4.59996,2470.147,2020-1-15T12:25:51Z
2020-01-15T10:28:22Z,42.805,6.029,13.3050,4.60014,2470.1,2020-1-15T12:28:55Z
2020-01-15T10:31:25Z,42.805,6.029,13.3028,4.60005,2470.133,2020-1-15T12:31:58Z
2020-01-15T10:34:28Z,42.805,6.029,13.3038,4.60001,2470.147,2020-1-15T12:35:01Z
2020-01-15T10:37:32Z,42.805,6.029,13.3036,4.60018,2470.171,2020-1-15T12:38:04Z
2020-01-15T10:40:35Z,42.805,6.029,13.3041,4.60014,2470.147,2020-1-15T12:41:07Z
2020-01-15T10:43:38Z,42.805,6.029,13.3042,4.60021,2470.147,2020-1-15T12:44:11Z
2020-01-15T10:46:41Z,42.805,6.029,13.3043,4.60001,2470.133,2020-1-15T12:47:14Z
2020-01-15T10:49:45Z,42.805,6.029,13.3043,4.59996,2470.124,2020-1-15T12:50:17Z
2020-01-15T10:52:48Z,42.805,6.029,13.3037,4.60009,2470.147,2020-1-15T12:53:20Z
2020-01-15T10:55:51Z,42.805,6.029,13.3034,4.60024,2470.124,2020-1-15T12:56:24Z
2020-01-15T10:58:54Z,42.805,6.029,13.3036,4.60021,2470.147,2020-1-15T12:59:27Z
2020-01-15T11:01:58Z,42.805,6.029,13.2996,4.60009,2470.147,2020-1-15T13:02:30Z
2020-01-15T11:05:01Z,42.805,6.029,13.3035,4.60018,2470.087,2020-1-15T13:05:33Z
2020-01-15T11:08:04Z,42.805,6.029,13.3047,4.59995,2470.124,2020-1-15T13:08:37Z
2020-01-15T11:11:07Z,42.805,6.029,13.3056,4.59996,2470.11,2020-1-15T13:11:40Z
2020-01-15T11:14:11Z,42.805,6.029,13.3053,4.60020,2470.11,2020-1-15T13:14:43Z
2020-01-15T11:17:14Z,42.805,6.029,13.3043,4.60022,2470.087,2020-1-15T13:17:46Z
2020-01-15T11:20:17Z,42.805,6.029,13.3036,4.60009,2470.124,2020-1-15T13:20:49Z
2020-01-15T11:23:20Z,42.805,6.029,13.3030,4.60016,2470.087,2020-1-15T13:23:53Z
2020-01-15T11:26:23Z,42.805,6.029,13.3021,4.60019,2470.1,2020-1-15T13:26:56Z
2020-01-15T11:29:27Z,42.805,6.029,13.3043,4.60009,2470.171,2020-1-15T13:29:59Z
2020-01-15T11:32:30Z,42.805,6.029,13.3050,4.59999,2470.077,2020-1-15T13:33:02Z
2020-01-15T11:35:33Z,42.805,6.029,13.3034,4.59994,2470.147,2020-1-15T13:36:06Z
2020-01-15T11:38:36Z,42.805,6.029,13.3043,4.59986,2470.11,2020-1-15T13:39:09Z
2020-01-15T11:41:40Z,42.805,6.029,13.3030,4.59996,2470.1,2020-1-15T13:42:12Z
2020-01-15T11:44:43Z,42.805,6.029,13.3019,4.59988,2470.087,2020-1-15T13:45:15Z
2020-01-15T11:47:46Z,42.805,6.029,13.3002,4.59991,2470.124,2020-1-15T13:48:19Z
2020-01-15T11:50:49Z,42.805,6.029,13.3017,4.59991,2470.11,2020-1-15T13:51:22Z
2020-01-15T11:53:53Z,42.805,6.029,13.3019,4.60002,2470.133,2020-1-15T13:54:25Z
2020-01-15T11:56:56Z,42.805,6.029,13.3024,4.60016,2470.11,2020-1-15T13:57:28Z
2020-01-15T11:59:59Z,42.805,6.029,13.3046,4.60039,2470.11,2020-1-15T14:00:32Z
2020-01-15T12:03:02Z,42.805,6.029,13.3029,4.60054,2470.124,2020-1-15T14:03:35Z
2020-01-15T12:06:05Z,42.805,6.029,13.3003,4.60003,2470.124,2020-1-15T14:06:38Z
2020-01-15T12:09:09Z,42.805,6.029,13.2991,4.60029,2470.124,2020-1-15T14:09:41Z
2020-01-15T12:12:12Z,42.805,6.029,13.3005,4.60000,2470.1,2020-1-15T14:12:44Z
2020-01-15T12:15:15Z,42.805,6.029,13.3010,4.60021,2470.124,2020-1-15T14:15:48Z
2020-01-15T12:18:18Z,42.805,6.029,13.3014,4.59989,2470.087,2020-1-15T14:18:51Z
2020-01-15T12:21:22Z,42.805,6.029,13.3020,4.59994,2470.1,2020-1-15T14:21:54Z
2020-01-15T12:24:25Z,42.805,6.029,13.3011,4.60009,2470.063,2020-1-15T14:24:57Z
2020-01-15T12:27:28Z,42.805,6.029,13.3043,4.59986,2470.087,2020-1-15T14:28:01Z
2020-01-15T12:30:31Z,42.805,6.029,13.3034,4.59988,2470.1,2020-1-15T14:31:04Z
2020-01-15T12:33:34Z,42.805,6.029,13.3030,4.59996,2470.087,2020-1-15T14:34:07Z
2020-01-15T12:36:38Z,42.805,6.029,13.3008,4.60040,2470.1,2020-1-15T14:37:10Z
2020-01-15T12:39:41Z,42.805,6.029,13.3020,4.60010,2470.063,2020-1-15T14:40:14Z
2020-01-15T12:42:44Z,42.805,6.029,13.3040,4.59996,2470.077,2020-1-15T14:43:17Z
2020-01-15T12:45:48Z,42.805,6.029,13.3013,4.59997,2470.063,2020-1-15T14:46:20Z
2020-01-15T12:48:51Z,42.805,6.029,13.3006,4.59998,2470.063,2020-1-15T14:49:23Z
2020-01-15T12:51:54Z,42.805,6.029,13.3008,4.59996,2470.1,2020-1-15T14:52:27Z
2020-01-15T12:54:57Z,42.805,6.029,13.3012,4.60005,2470.1,2020-1-15T14:55:30Z
2020-01-15T12:58:01Z,42.805,6.029,13.3001,4.60019,2470.077,2020-1-15T14:58:33Z
2020-01-15T13:01:04Z,42.805,6.029,13.3010,4.60027,2470.1,2020-1-15T15:01:36Z
2020-01-15T13:04:07Z,42.805,6.029,13.3000,4.60054,2470.077,2020-1-15T15:04:39Z
2020-01-15T13:07:10Z,42.805,6.029,13.3009,4.60049,2470.077,2020-1-15T15:07:43Z
2020-01-15T13:10:14Z,42.805,6.029,13.3019,4.60059,2470.087,2020-1-15T15:10:46Z
2020-01-15T13:13:17Z,42.805,6.029,13.3028,4.60049,2470.087,2020-1-15T15:13:49Z
2020-01-15T13:16:20Z,42.805,6.029,13.3024,4.60046,2470.053,2020-1-15T15:16:53Z
2020-01-15T13:19:23Z,42.805,6.029,13.3014,4.60071,2470.053,2020-1-15T15:19:56Z
2020-01-15T13:22:26Z,42.805,6.029,13.3017,4.60036,2470.04,2020-1-15T15:22:59Z
2020-01-15T13:25:30Z,42.805,6.029,13.3035,4.60055,2470.1,2020-1-15T15:26:02Z
2020-01-15T13:28:33Z,42.805,6.029,13.3042,4.60029,2470.017,2020-1-15T15:29:05Z
2020-01-15T13:31:36Z,42.805,6.029,13.3015,4.60027,2470.053,2020-1-15T15:32:09Z
2020-01-15T13:34:39Z,42.805,6.029,13.3023,4.60023,2470.04,2020-1-15T15:35:12Z
2020-01-15T13:37:43Z,42.805,6.029,13.2996,4.60044,2470.04,2020-1-15T15:38:15Z
2020-01-15T13:40:46Z,42.805,6.029,13.2997,4.60058,2470.017,2020-1-15T15:41:19Z
2020-01-15T13:43:49Z,42.805,6.029,13.3011,4.60052,2470.04,2020-1-15T15:44:22Z
2020-01-15T13:46:52Z,42.805,6.029,13.3024,4.60076,2470.04,2020-1-15T15:47:25Z
2020-01-15T13:49:56Z,42.805,6.029,13.3035,4.60089,2470.017,2020-1-15T15:50:28Z
2020-01-15T13:52:59Z,42.805,6.029,13.3051,4.60014,2470.04,2020-1-15T15:53:31Z
2020-01-15T13:56:02Z,42.805,6.029,13.3014,4.60038,2470.04,2020-1-15T15:56:35Z
2020-01-15T13:59:05Z,42.805,6.029,13.3000,4.60033,2470.077,2020-1-15T15:59:38Z
2020-01-15T14:02:09Z,42.805,6.029,13.3029,4.60027,2470.053,2020-1-15T16:02:41Z
2020-01-15T14:05:12Z,42.805,6.029,13.3000,4.60023,2470.03,2020-1-15T16:05:45Z
2020-01-15T14:08:15Z,42.805,6.029,13.3004,4.60046,2470.04,2020-1-15T16:08:48Z
2020-01-15T14:11:18Z,42.805,6.029,13.3025,4.60089,2470.03,2020-1-15T16:11:51Z
2020-01-15T14:14:22Z,42.805,6.029,13.3043,4.60052,2470.04,2020-1-15T16:14:54Z
2020-01-15T14:17:25Z,42.805,6.029,13.3051,4.60046,2470.03,2020-1-15T16:17:57Z
2020-01-15T14:20:28Z,42.805,6.029,13.3041,4.60046,2470.017,2020-1-15T16:21:01Z
2020-01-15T14:23:31Z,42.805,6.029,13.3023,4.60044,2470.007,2020-1-15T16:24:04Z
2020-01-15T14:26:35Z,42.805,6.029,13.3027,4.60046,2470.053,2020-1-15T16:27:07Z
2020-01-15T14:29:38Z,42.805,6.029,13.3030,4.60034,2470.03,2020-1-15T16:30:10Z
2020-01-15T14:32:41Z,42.805,6.029,13.3025,4.60037,2470.017,2020-1-15T16:33:14Z
2020-01-15T14:35:44Z,42.805,6.029,13.3024,4.60038,2470.017,2020-1-15T16:36:17Z
2020-01-15T14:38:48Z,42.805,6.029,13.3022,4.60076,2470.017,2020-1-15T16:39:20Z
2020-01-15T14:41:51Z,42.805,6.029,13.2994,4.60058,2470.007,2020-1-15T16:42:23Z
2020-01-15T14:44:54Z,42.805,6.029,13.3043,4.60035,2469.984,2020-1-15T16:45:27Z
2020-01-15T14:47:57Z,42.805,6.029,13.3080,4.60031,2470.017,2020-1-15T16:48:30Z
2020-01-15T14:51:01Z,42.805,6.029,13.3016,4.60031,2469.984,2020-1-15T16:51:33Z
2020-01-15T14:54:04Z,42.805,6.029,13.3011,4.60053,2470.017,2020-1-15T16:54:37Z
2020-01-15T14:57:07Z,42.805,6.029,13.3062,4.60057,2470.03,2020-1-15T16:57:40Z
2020-01-15T15:00:10Z,42.805,6.029,13.3068,4.60050,2469.993,2020-1-15T17:00:43Z
2020-01-15T15:03:14Z,42.805,6.029,13.3066,4.60014,2470.017,2020-1-15T17:03:46Z
2020-01-15T15:06:17Z,42.805,6.029,13.3005,4.60063,2469.984,2020-1-15T17:06:50Z
2020-01-15T15:09:20Z,42.805,6.029,13.3033,4.60029,2469.993,2020-1-15T17:09:53Z
2020-01-15T15:12:24Z,42.805,6.029,13.3060,4.60090,2469.993,2020-1-15T17:12:56Z
2020-01-15T15:15:27Z,42.805,6.029,13.3001,4.60033,2470.007,2020-1-15T17:15:59Z